Terminal Aerodrome Forecast
Issued by NWS

Home | Current Version | Previous Version | Text Only | Print | Product List | Glossary On
Versions: 1 2 3 4 5 6 7 8 9 10 11 12 13 14 15 16
861
FTUS43 KPAH 300520
TAFCGI
TAF
KCGI 300520Z 3006/0106 09008KT P6SM -SHRA FEW045 OVC150
     FM300800 12012G18KT 6SM -SHRA BR BKN015
      TEMPO 3009/3013 2SM TSRA BR BKN009CB
     FM301600 20012G19KT P6SM SCT025 BKN150
     FM302200 18006KT P6SM SCT040 BKN250 PROB30 3023/0103 4SM TSRA
      BKN035CB=

USA.gov is the U.S. government's official web portal to all federal, state and local government web resources and services.